Probability
0 0 0 0 0 0 0 0 0 0 0 0 0 0 0 6 13 45 74 55 94 100 100 100 100 100 100 100 100 100 100 100 100 100 100 100 100 100 100 100 100 100 100 100 100 100 100 100 100
0 0 0 0 0 0 0 0 0 0 0 0 0 0 0 3 16 45 68 84 100 100 100 100 100 100 100 100 100 100 100 100 100 100 100 100 100 100 100 100 100 100 100 100 100 100 100 100 100
0 0 0 0 0 0 0 0 0 0 0 0 0 0 3 6 19 58 90 94 100 100 100 100 100 100 100 100 100 100 100 100 100 100 100 100 100 100 100 100 100 100 100 100 100 100 100 100 100
0 0 0 0 0 0 0 0 0 0 0 0 0 3 6 19 23 65 87 94 100 100 100 100 100 100 100 100 100 100 100 100 100 100 100 100 100 100 100 100 100 100 100 100 100 100 100 97 94
0 0 0 0 0 0 0 0 0 0 0 0 0 6 16 32 48 74 90 97 100 100 100 100 100 100 100 100 100 100 100 100 100 100 100 100 100 100 100 100 100 100 100 100 100 97 97 97 94
0 0 0 0 0 0 0 0 0 0 0 0 0 10 29 42 65 71 84 97 97 97 100 100 100 100 100 100 100 100 100 100 100 100 100 100 100 100 100 100 100 100 100 100 94 90 84 84 84
0 0 0 0 0 0 0 0 0 0 0 0 0 10 35 52 68 74 77 90 97 97 100 100 100 100 100 100 100 100 100 100 100 100 100 100 100 100 100 100 100 100 100 87 81 81 74 71 71
0 0 0 0 0 0 0 0 0 0 0 0 0 6 32 58 71 71 81 94 97 100 100 97 97 100 100 100 100 100 100 100 100 100 100 100 100 100 100 100 100 100 90 87 77 74 71 71 71
0 0 0 0 0 0 0 0 0 0 0 0 6 19 39 61 68 77 81 94 97 97 94 94 94 100 100 100 100 100 100 100 100 100 100 97 97 97 97 94 94 84 84 81 77 81 81 74 74
0 0 0 0 0 0 0 0 0 0 0 0 13 19 42 55 65 74 81 87 94 94 90 77 81 84 90 94 100 100 97 97 97 94 97 94 97 97 94 90 97 81 77 77 81 84 81 71 58
0 0 0 0 0 0 0 0 0 0 0 3 10 26 32 48 68 71 87 77 84 87 97 90 90 87 81 94 97 97 90 97 90 90 90 94 94 90 81 71 71 81 74 77 81 81 71 52 58
0 0 0 0 0 0 0 0 0 0 3 13 13 23 42 42 52 68 77 81 74 81 84 81 84 90 87 94 90 94 90 90 81 87 87 87 90 81 74 71 65 74 65 81 77 74 52 52 55
0 0 0 0 0 0 0 0 0 3 10 10 19 29 32 32 39 58 68 71 74 74 77 81 74 77 84 84 87 84 87 84 81 87 74 71 65 65 61 65 58 61 65 77 87 84 65 58 45
0 0 0 0 0 0 0 0 0 6 10 19 19 26 26 32 39 55 71 71 68 65 77 77 87 84 90 87 84 84 74 81 84 68 65 61 61 52 52 52 61 68 74 65 81 94 90 84 87
0 0 0 0 0 0 0 0 3 10 10 13 16 26 23 39 42 52 61 71 74 68 74 81 81 81 87 87 84 84 71 77 74 55 55 52 52 45 45 45 45 65 71 74 77 81 87 84 81
0 0 0 0 0 0 0 3 3 6 13 13 16 19 26 39 35 52 55 68 77 74 74 77 71 71 81 77 74 77 68 65 65 61 55 55 45 45 45 48 48 58 68 71 68 74 77 77 71
0 0 0 0 0 0 0 0 6 6 10 23 29 23 29 29 45 55 58 68 74 71 71 71 71 68 71 77 74 68 71 65 52 52 58 52 48 45 39 45 48 55 61 61 58 61 65 55 52
0 0 0 0 0 0 0 0 6 6 16 13 26 26 26 26 39 61 65 61 71 74 71 68 68 71 68 61 71 68 61 55 45 39 42 52 52 45 45 45 48 52 52 55 48 52 45 42 39
0 0 0 0 0 3 3 3 13 13 16 13 29 29 32 29 39 58 58 58 65 65 65 65 65 65 58 61 65 58 48 39 35 35 32 35 35 42 42 45 48 48 39 32 42 35 19 23 19
0 0 0 0 0 3 3 3 13 16 16 13 29 29 35 39 48 52 52 48 52 55 55 58 55 52 55 55 58 52 35 32 32 35 19 29 29 26 23 42 39 42 39 29 29 19 19 10 10
0 0 0 0 0 0 0 0 3 16 13 26 32 29 29 32 35 35 42 42 35 35 45 48 52 48 58 58 45 32 35 26 23 23 19 26 29 26 26 29 29 26 23 19 10 13 6 6 10
0 0 0 0 0 0 0 0 0 10 13 16 29 19 29 29 29 26 39 39 39 39 39 42 52 52 48 45 39 35 32 23 19 19 13 23 19 19 19 23 23 23 13 13 6 6 3 3 6
0 0 0 0 0 0 0 0 0 6 19 16 26 29 29 29 19 29 29 35 35 39 39 39 45 45 45 39 45 35 26 23 23 16 6 10 13 10 6 10 13 13 6 6 6 6 6 3 6
0 0 0 0 0 0 0 0 0 10 13 32 32 32 26 19 19 26 23 29 32 29 32 35 35 35 32 35 29 23 13 13 10 6 6 6 6 6 6 6 6 6 6 6 6 6 3 3 0
0 0 0 0 0 0 0 0 3 10 13 23 32 29 26 23 23 23 26 29 23 23 23 32 29 29 26 26 16 10 10 10 6 6 6 6 3 3 6 6 6 6 6 6 3 3 0 0 0
0 0 0 0 0 0 0 0 6 23 29 23 26 32 29 16 16 16 16 19 16 16 16 19 26 23 16 16 10 10 10 6 6 6 6 3 0 0 0 0 0 0 0 0 0 3 0 0 0
0 0 0 0 0 0 0 0 3 13 19 16 19 13 13 13 13 10 10 10 13 16 16 16 13 6 3 3 6 6 3 3 3 6 3 0 0 0 0 0 0 0 0 0 0 0 0 0 0
0 0 0 0 0 0 0 0 3 3 10 16 13 13 6 10 10 6 3 6 6 3 10 10 3 3 3 3 3 3 3 3 3 0 0 0 0 0 0 0 0 0 0 0 0 0 0 0 0
0 0 0 0 0 0 0 0 0 3 3 13 16 13 6 6 6 0 0 0 0 0 0 0 3 3 3 3 3 3 3 3 0 0 0 0 0 0 0 0 0 0 0 0 0 0 0 0 0
0 0 0 0 0 0 0 0 0 3 6 13 10 3 3 0 0 0 0 0 0 0 0 0 3 3 3 3 3 3 0 0 0 0 0 0 0 0 0 0 0 0 0 0 0 0 0 0 0
Height
5873 5873 5875 5876 5878 5880 5881 5884 5886 5884 5882 5881 5882 5881 5881 5880 5880 5881 5879 5878 5878 5879 5879 5880 5881 5882 5883 5884 5885 5886 5887 5888 5889 5890 5891 5892 5892 5893 5893 5893 5893 5893 5893 5893 5893 5893 5893 5893 5893
5870 5871 5872 5874 5875 5877 5881 5883 5884 5882 5879 5879 5879 5879 5878 5877 5876 5876 5876 5876 5876 5877 5877 5878 5879 5880 5881 5882 5883 5884 5885 5886 5887 5888 5889 5890 5891 5891 5892 5892 5892 5892 5892 5892 5892 5892 5892 5892 5892
5866 5867 5869 5870 5872 5875 5879 5881 5881 5879 5877 5877 5876 5876 5876 5875 5874 5874 5874 5874 5875 5875 5875 5876 5877 5878 5879 5880 5881 5882 5883 5884 5885 5886 5887 5888 5889 5889 5890 5890 5890 5890 5891 5891 5891 5891 5891 5891 5892
5862 5864 5866 5868 5870 5873 5876 5878 5877 5876 5875 5874 5874 5874 5873 5873 5872 5872 5872 5873 5873 5873 5873 5873 5874 5876 5877 5878 5878 5880 5881 5882 5883 5884 5885 5886 5887 5887 5888 5888 5888 5889 5889 5889 5890 5890 5890 5890 5891
5859 5861 5863 5865 5867 5871 5875 5875 5874 5873 5873 5872 5871 5871 5869 5870 5869 5869 5870 5871 5871 5871 5871 5871 5872 5873 5874 5875 5876 5877 5878 5879 5880 5881 5882 5883 5884 5885 5885 5886 5886 5887 5887 5887 5888 5889 5889 5889 5889
5856 5857 5859 5861 5866 5870 5872 5871 5870 5870 5870 5870 5870 5868 5866 5867 5866 5866 5867 5868 5868 5868 5869 5869 5869 5870 5871 5872 5873 5874 5875 5876 5878 5879 5879 5880 5881 5882 5883 5883 5884 5884 5885 5885 5886 5887 5887 5888 5888
5853 5854 5855 5859 5865 5868 5869 5866 5865 5866 5867 5867 5867 5866 5862 5862 5862 5862 5863 5865 5865 5866 5866 5866 5867 5867 5868 5869 5870 5871 5873 5874 5875 5876 5877 5878 5879 5879 5880 5881 5881 5882 5882 5883 5884 5885 5886 5886 5886
5848 5850 5852 5856 5860 5863 5863 5861 5861 5862 5862 5863 5863 5862 5859 5858 5860 5861 5861 5861 5861 5861 5863 5863 5864 5864 5865 5866 5867 5868 5869 5870 5871 5872 5873 5874 5875 5876 5877 5878 5878 5879 5880 5880 5881 5882 5883 5884 5884
5844 5848 5849 5854 5857 5859 5857 5855 5856 5856 5857 5858 5857 5858 5856 5856 5857 5857 5856 5857 5858 5858 5860 5860 5860 5861 5862 5863 5864 5865 5866 5867 5868 5869 5870 5871 5872 5873 5873 5874 5875 5876 5877 5878 5879 5880 5881 5882 5882
5841 5844 5847 5850 5850 5851 5851 5850 5851 5851 5852 5853 5854 5854 5851 5851 5852 5854 5854 5853 5853 5853 5855 5856 5857 5857 5858 5860 5861 5862 5863 5864 5864 5865 5866 5867 5868 5869 5870 5871 5872 5872 5874 5875 5876 5877 5878 5879 5880
5838 5840 5842 5843 5844 5844 5844 5845 5845 5847 5848 5849 5849 5848 5848 5848 5849 5850 5850 5850 5850 5847 5849 5850 5851 5853 5854 5856 5857 5858 5859 5860 5860 5861 5862 5863 5864 5865 5866 5867 5868 5869 5870 5871 5872 5874 5875 5876 5877
5834 5836 5836 5837 5837 5838 5839 5840 5841 5842 5843 5843 5843 5843 5844 5845 5844 5845 5846 5846 5845 5844 5844 5846 5846 5849 5850 5851 5851 5853 5854 5855 5856 5856 5857 5858 5859 5860 5862 5863 5863 5864 5866 5867 5868 5870 5871 5872 5873
5831 5832 5832 5832 5832 5833 5834 5834 5835 5836 5837 5836 5837 5838 5839 5839 5840 5840 5841 5841 5839 5837 5839 5839 5840 5842 5844 5846 5845 5847 5849 5850 5851 5851 5852 5853 5854 5855 5857 5858 5858 5860 5862 5863 5864 5866 5867 5869 5870
5828 5828 5829 5829 5829 5829 5829 5829 5830 5831 5830 5830 5831 5832 5833 5834 5834 5833 5835 5835 5834 5835 5835 5836 5836 5837 5838 5839 5840 5841 5844 5845 5846 5847 5847 5847 5848 5850 5851 5852 5854 5855 5857 5858 5859 5861 5863 5865 5866
5824 5824 5825 5825 5825 5825 5825 5826 5825 5825 5825 5825 5826 5826 5827 5827 5827 5828 5829 5830 5831 5831 5831 5833 5831 5832 5834 5835 5835 5837 5839 5840 5841 5842 5841 5842 5843 5845 5846 5848 5849 5850 5852 5853 5854 5856 5859 5860 5861
5821 5821 5822 5823 5821 5821 5823 5823 5821 5819 5819 5819 5819 5819 5820 5821 5821 5822 5822 5823 5825 5825 5827 5829 5828 5828 5829 5831 5832 5833 5835 5836 5835 5836 5836 5836 5838 5840 5841 5842 5843 5845 5847 5848 5849 5851 5853 5855 5856
5818 5820 5822 5823 5819 5818 5818 5818 5818 5815 5814 5813 5813 5813 5815 5815 5814 5816 5817 5818 5819 5821 5822 5823 5823 5822 5822 5826 5827 5828 5830 5830 5830 5830 5831 5832 5833 5834 5835 5836 5838 5840 5841 5843 5845 5847 5848 5850 5851
5818 5820 5821 5821 5818 5814 5813 5813 5812 5811 5809 5808 5808 5808 5808 5808 5809 5809 5810 5812 5813 5815 5816 5816 5817 5818 5819 5821 5821 5822 5824 5824 5824 5824 5826 5827 5827 5828 5829 5830 5831 5834 5836 5838 5839 5841 5843 5844 5846
5814 5815 5816 5818 5816 5811 5810 5809 5807 5807 5805 5803 5803 5802 5802 5802 5802 5803 5804 5805 5807 5808 5809 5810 5810 5812 5813 5815 5816 5816 5816 5817 5818 5819 5820 5822 5822 5822 5824 5825 5826 5828 5830 5832 5834 5835 5837 5838 5840
5809 5810 5812 5812 5810 5807 5805 5803 5802 5800 5799 5798 5797 5795 5796 5795 5795 5796 5798 5799 5800 5801 5802 5803 5804 5805 5807 5808 5810 5811 5811 5811 5812 5814 5815 5816 5817 5817 5818 5819 5820 5822 5824 5825 5827 5829 5831 5832 5833
5805 5807 5807 5806 5804 5802 5801 5799 5797 5794 5793 5792 5790 5790 5789 5790 5790 5790 5791 5792 5793 5794 5796 5797 5798 5799 5800 5802 5803 5804 5805 5806 5807 5808 5810 5811 5811 5812 5812 5813 5814 5815 5817 5819 5821 5823 5824 5826 5828
5802 5802 5801 5800 5799 5798 5797 5794 5793 5789 5788 5786 5785 5784 5783 5784 5784 5784 5785 5786 5786 5787 5788 5790 5791 5793 5794 5796 5797 5798 5799 5800 5800 5801 5802 5803 5804 5805 5806 5808 5808 5810 5811 5813 5815 5816 5817 5819 5821
5797 5797 5796 5795 5793 5792 5792 5790 5789 5784 5782 5781 5780 5778 5778 5778 5777 5777 5778 5779 5780 5781 5782 5783 5785 5786 5788 5790 5791 5793 5793 5794 5795 5795 5796 5797 5798 5799 5800 5801 5802 5803 5804 5806 5807 5809 5811 5812 5813
5793 5792 5791 5790 5789 5788 5786 5785 5784 5779 5778 5777 5775 5774 5773 5773 5772 5772 5772 5773 5773 5774 5775 5777 5778 5780 5782 5783 5785 5787 5787 5788 5789 5789 5790 5790 5791 5792 5793 5794 5795 5796 5797 5799 5800 5802 5803 5805 5806
5789 5789 5788 5787 5784 5782 5781 5779 5778 5774 5774 5773 5771 5770 5769 5768 5767 5767 5767 5768 5768 5769 5769 5771 5772 5774 5776 5777 5779 5780 5781 5782 5782 5783 5783 5784 5785 5786 5786 5787 5788 5789 5791 5792 5794 5795 5796 5797 5799
5786 5786 5786 5784 5782 5779 5776 5774 5772 5770 5769 5768 5766 5765 5764 5764 5763 5763 5763 5763 5763 5763 5764 5765 5767 5768 5770 5771 5772 5773 5774 5775 5776 5776 5777 5777 5778 5779 5779 5780 5781 5782 5784 5785 5786 5787 5788 5789 5791
5783 5783 5783 5780 5778 5777 5774 5771 5767 5765 5764 5763 5762 5760 5759 5759 5759 5758 5758 5758 5758 5758 5759 5759 5761 5762 5763 5764 5765 5766 5767 5768 5769 5769 5770 5771 5771 5772 5772 5773 5774 5775 5776 5778 5779 5780 5781 5782 5783
5781 5780 5779 5777 5775 5773 5772 5768 5765 5761 5758 5758 5757 5756 5755 5754 5753 5753 5753 5753 5753 5753 5753 5754 5754 5756 5756 5757 5758 5759 5760 5761 5762 5763 5764 5764 5765 5765 5766 5767 5767 5768 5769 5770 5772 5773 5774 5775 5776
5777 5776 5774 5773 5772 5770 5768 5767 5761 5759 5757 5755 5754 5752 5751 5750 5748 5748 5748 5747 5747 5747 5747 5747 5748 5749 5750 5750 5751 5752 5753 5754 5755 5756 5757 5757 5758 5759 5759 5760 5761 5761 5762 5763 5764 5766 5767 5767 5768
5773 5773 5772 5771 5769 5767 5765 5765 5758 5755 5752 5751 5750 5748 5747 5745 5744 5743 5743 5742 5742 5742 5742 5742 5742 5743 5743 5744 5745 5746 5746 5747 5748 5749 5750 5750 5751 5752 5753 5753 5754 5754 5755 5756 5757 5758 5759 5759 5760
Wind_Speed
14 14 13 12 10 7 3 3 10 13 19 20 17 16 17 17 19 18 16 15 14 14 15 15 15 16 16 16 16 16 15 15 15 15 15 15 14 13 13 11 10 8 7 6 5 4 3 3 3
16 15 15 14 11 6 4 7 12 14 21 19 17 16 17 18 19 18 16 16 15 15 16 17 16 16 17 17 17 16 16 15 15 15 16 16 16 15 14 13 11 10 8 7 6 5 4 3 3
17 16 16 15 13 8 7 9 12 15 21 19 18 17 16 17 18 18 16 17 16 17 17 16 16 17 18 18 17 17 17 16 16 16 16 16 17 16 16 14 13 11 10 9 7 6 5 4 4
17 17 16 16 13 9 10 12 15 17 19 18 17 17 17 17 17 17 16 17 17 17 17 17 16 17 18 19 18 17 17 17 17 17 17 17 18 17 17 15 14 13 11 10 9 8 6 6 6
17 16 16 15 11 11 14 17 20 20 20 18 17 17 18 17 17 16 16 17 17 17 17 17 17 17 18 18 18 17 18 18 17 18 18 18 19 18 18 17 16 14 13 12 10 9 8 7 7
16 16 15 11 8 11 15 19 23 22 20 18 19 19 20 18 18 16 15 16 17 17 16 17 17 17 19 20 19 18 19 19 19 19 18 19 19 19 19 18 17 16 14 13 12 10 9 9 8
16 15 14 11 11 13 18 21 23 21 19 19 20 20 21 20 18 16 16 17 18 17 16 16 17 17 18 20 20 19 19 20 20 20 20 20 20 20 20 20 19 17 16 15 13 12 11 10 10
15 15 14 12 13 14 19 23 25 24 20 20 22 21 22 21 18 19 18 17 18 17 18 18 18 18 19 19 19 19 19 20 21 21 21 22 22 21 21 21 20 19 18 16 15 14 13 12 11
14 14 12 10 13 16 20 23 23 22 22 23 24 23 25 24 21 20 20 18 19 18 18 19 20 19 19 19 19 19 20 20 21 21 22 23 23 22 22 22 22 21 19 18 17 16 15 14 13
14 13 10 13 19 21 20 22 20 21 21 21 23 24 27 25 21 22 21 20 20 19 19 20 20 20 20 20 20 21 21 21 22 22 23 24 24 23 23 23 23 22 21 20 19 17 16 15 15
14 14 14 17 22 24 23 22 20 21 20 19 21 24 26 25 25 25 23 24 23 22 21 22 21 21 22 22 22 22 21 22 22 22 24 25 25 25 25 25 24 23 22 21 20 19 18 17 16
14 16 18 20 22 23 23 22 22 20 20 22 24 26 25 26 25 25 25 26 27 26 23 23 22 22 22 22 23 23 22 23 24 23 24 24 25 26 25 26 25 24 23 22 22 21 20 19 18
15 16 17 19 20 20 21 22 23 22 22 25 26 27 27 27 27 28 28 28 29 27 25 24 23 23 24 24 24 24 23 23 25 25 24 25 26 26 26 26 25 24 24 23 23 22 22 20 19
14 15 16 17 18 19 20 20 21 22 24 26 26 27 28 28 29 29 29 31 30 30 28 25 25 25 25 25 24 24 24 24 25 25 26 24 25 26 26 26 25 25 24 24 25 24 23 22 21
13 14 14 15 17 18 19 18 18 22 24 25 26 27 27 28 29 29 31 32 33 32 29 27 27 26 26 26 26 24 25 25 24 24 25 25 24 24 25 26 26 25 25 27 27 26 25 24 23
10 11 11 13 18 19 18 15 17 23 24 25 26 27 27 28 30 30 31 32 32 31 31 31 29 28 27 28 28 26 25 26 25 24 24 23 24 25 26 25 26 26 26 27 28 27 26 26 25
8 9 9 13 20 21 19 15 17 25 25 26 26 27 27 29 30 31 32 32 33 33 32 32 32 30 29 29 29 29 28 28 27 25 24 25 25 25 26 26 27 27 27 29 29 28 28 27 27
7 10 11 13 18 21 20 18 19 24 25 24 26 27 27 29 31 32 32 32 33 34 34 34 34 33 32 32 30 30 28 27 27 25 25 26 26 25 24 24 25 27 28 29 30 30 29 29 30
13 14 15 14 18 22 21 21 22 24 24 25 27 28 28 29 30 31 31 32 33 34 35 35 35 34 33 33 32 30 29 28 27 27 26 26 25 24 24 24 25 27 29 30 29 29 29 29 29
15 14 13 14 19 23 23 22 22 23 24 25 26 27 28 28 28 30 31 31 33 34 35 36 36 35 34 34 33 32 30 29 27 26 27 27 26 26 26 27 27 28 30 32 31 30 29 29 29
12 12 14 15 18 20 21 21 21 23 23 25 25 25 26 26 27 28 30 31 33 34 35 37 36 35 34 33 32 32 31 30 29 28 29 29 28 28 27 27 27 28 29 30 31 31 31 31 31
12 13 16 16 17 18 19 20 20 23 23 23 23 23 24 23 26 28 29 31 32 33 34 35 35 34 34 33 33 33 32 31 30 29 29 28 28 28 28 28 28 28 29 30 31 31 31 32 33
13 14 15 16 17 17 18 20 19 22 22 22 21 21 22 22 25 26 28 29 31 31 32 34 34 33 33 32 33 32 32 32 31 30 29 29 28 29 28 29 30 29 29 31 31 31 32 32 32
13 13 14 14 16 18 17 20 20 23 23 22 21 21 21 22 24 24 25 26 28 28 30 31 31 31 32 32 33 33 32 31 31 30 30 28 29 29 28 29 29 29 29 30 31 32 33 33 33
12 12 13 15 18 19 18 18 18 19 19 21 22 22 21 21 22 22 24 24 26 27 27 28 30 31 31 32 33 33 33 32 31 31 30 29 29 29 29 29 30 29 30 31 32 33 34 34 35
12 11 14 17 18 20 20 18 18 20 20 20 22 22 22 22 22 22 24 24 25 27 28 29 29 31 31 32 32 32 32 32 30 30 30 30 30 30 29 29 29 29 30 31 32 33 33 34 34
12 12 13 17 17 17 18 19 19 18 20 20 21 22 22 23 23 23 23 24 25 26 27 28 29 30 31 31 32 32 31 31 30 29 29 29 29 28 28 28 28 29 30 31 31 31 31 32 32
12 12 14 14 16 17 17 19 22 20 19 19 21 22 23 24 23 23 24 25 25 26 27 28 29 30 31 31 31 31 31 30 30 29 28 28 27 27 28 29 29 30 31 31 31 31 31 31 32
12 13 14 14 15 17 19 21 23 23 23 21 21 21 22 22 22 23 24 25 25 26 26 28 29 29 30 30 30 30 30 29 29 29 28 28 28 28 28 28 28 30 30 30 31 31 31 32 32
13 12 13 15 16 17 20 23 23 24 23 21 20 21 22 22 22 23 24 24 25 25 26 26 27 28 28 28 29 29 29 29 29 29 29 29 29 29 28 28 28 29 29 30 30 31 31 31 31
Wind_Direction
259 256 254 253 250 250 266 266 258 259 267 270 269 265 264 266 266 268 271 269 269 265 259 253 247 241 234 231 229 228 229 228 230 234 237 240 243 246 248 249 250 252 253 255 255 251 255 265 271
256 254 250 248 245 240 281 262 254 256 265 274 275 269 264 265 267 270 271 271 272 270 260 254 251 245 240 236 232 231 231 233 234 239 241 244 247 250 251 252 253 254 255 257 258 253 253 260 264
252 251 248 245 238 223 228 246 239 251 267 274 275 274 267 266 269 269 270 271 270 269 264 258 255 248 243 237 237 235 233 235 238 240 243 247 249 251 252 253 254 255 255 257 258 255 254 254 255
251 249 248 247 239 229 233 252 255 253 265 272 274 274 271 268 267 263 263 267 266 267 268 260 255 248 244 241 240 239 239 241 243 244 246 249 252 252 252 253 253 255 255 256 256 256 255 253 250
250 248 248 247 242 229 232 241 253 256 261 267 269 270 270 269 268 263 262 264 265 263 264 261 252 248 245 243 243 243 244 245 247 248 249 251 253 253 253 253 252 253 254 255 254 254 253 253 250
247 246 246 246 257 253 244 243 248 253 258 262 266 267 268 268 267 263 260 264 264 262 259 256 254 253 249 245 245 244 244 246 250 251 252 254 255 255 254 252 252 252 253 253 253 252 251 251 251
245 243 243 240 241 246 251 249 251 253 254 255 257 262 265 265 264 264 261 261 260 261 260 257 257 257 257 251 247 247 248 250 252 253 254 255 256 255 254 252 251 252 252 252 252 251 250 250 251
244 243 238 235 238 240 249 254 254 252 248 249 252 254 259 260 259 264 263 258 262 260 256 256 257 257 257 251 248 249 251 252 253 254 255 256 255 255 253 252 251 251 251 252 252 251 251 251 252
242 243 239 233 245 246 252 257 258 255 250 249 253 252 257 261 260 260 262 258 261 262 262 259 254 257 257 255 253 255 255 255 255 255 255 255 255 254 252 251 250 250 251 251 252 251 252 252 252
243 239 232 237 239 237 243 254 254 258 253 252 254 254 257 260 256 258 260 258 258 259 260 255 257 258 258 257 256 256 257 257 256 256 257 256 255 253 252 251 250 250 251 252 253 253 252 252 252
244 239 230 240 248 246 247 252 255 257 255 252 250 251 255 258 257 255 256 256 256 254 255 254 253 259 258 257 257 257 257 258 258 257 259 258 256 253 252 250 249 248 249 250 251 252 252 252 252
250 245 244 249 254 256 256 256 257 256 251 247 247 250 251 255 255 252 251 252 254 254 253 254 253 257 256 258 257 255 256 256 258 260 259 258 254 252 251 250 249 247 248 249 250 251 252 253 253
260 258 259 262 264 265 263 261 260 258 255 253 253 254 255 255 254 253 252 252 254 254 256 256 255 255 256 260 257 256 257 259 258 258 259 259 258 254 251 249 247 249 248 247 249 251 253 254 253
260 264 267 270 271 270 269 268 265 260 259 258 258 258 258 256 253 250 248 249 253 255 257 260 259 257 261 262 258 258 260 262 262 261 258 260 261 255 251 248 246 249 248 248 249 250 252 254 254
263 268 274 277 273 274 274 274 270 264 263 261 260 259 259 256 254 251 249 247 249 251 255 261 261 260 261 263 263 264 265 268 268 265 262 262 262 260 254 249 248 249 250 248 249 250 251 252 253
273 279 285 280 275 280 280 275 268 265 265 263 261 260 259 257 254 251 248 247 249 250 254 258 261 259 260 264 265 266 266 267 270 271 270 268 264 261 256 252 249 250 250 248 249 250 250 251 251
292 288 284 271 279 283 281 267 257 267 268 267 266 264 260 259 254 250 249 250 250 252 254 256 257 258 260 263 264 265 265 268 270 268 272 273 268 262 258 257 253 250 249 249 250 249 252 252 252
281 278 273 265 276 280 278 273 264 267 271 272 270 266 261 258 256 252 251 251 251 252 253 254 255 257 259 260 263 265 266 267 269 270 274 274 269 266 262 259 252 251 250 252 251 251 253 253 254
243 243 248 256 262 267 274 276 269 270 270 272 270 267 262 258 257 255 253 252 252 252 252 253 254 255 256 260 263 266 266 268 270 272 274 271 269 265 264 261 260 256 254 252 252 253 254 255 255
256 257 262 263 260 265 273 274 272 271 271 271 267 264 263 259 259 258 257 254 253 253 253 253 254 255 257 258 262 267 267 271 272 270 271 271 268 269 269 267 261 255 253 252 253 255 256 257 256
267 266 264 263 266 271 279 281 281 272 271 274 271 269 267 261 258 256 257 256 255 254 253 253 254 256 258 259 262 264 268 271 272 270 270 270 269 270 269 266 261 257 255 254 255 257 255 254 255
269 270 266 265 269 274 274 274 275 273 274 277 272 270 272 264 260 258 257 256 256 256 255 253 253 255 257 259 261 265 269 271 273 273 274 272 270 272 268 264 262 257 254 255 255 256 254 253 256
263 265 270 274 275 274 272 271 276 275 274 276 272 269 270 269 266 262 260 258 255 255 256 254 254 254 256 258 258 262 266 270 272 273 274 273 271 272 267 263 261 258 256 254 253 253 254 256 257
277 278 285 287 283 277 271 266 266 271 280 279 276 273 274 273 268 264 261 259 256 254 253 252 253 253 255 257 259 262 264 268 268 270 272 271 270 271 267 263 262 259 257 256 255 257 258 258 258
282 286 292 292 292 288 280 272 269 268 278 281 278 279 278 275 271 267 264 261 257 254 255 254 254 254 255 258 260 263 265 266 267 268 270 269 268 268 265 263 261 259 258 258 258 258 260 260 260
280 282 285 288 289 296 295 289 279 269 275 278 279 278 278 279 274 271 267 262 259 257 256 255 255 255 257 259 260 262 264 265 266 268 269 268 267 267 266 265 263 262 260 260 260 260 261 262 260
283 280 282 282 286 289 293 294 288 281 279 283 283 280 280 281 278 274 268 264 262 260 259 257 256 258 260 260 260 261 262 264 266 267 267 267 267 265 265 265 264 261 260 262 264 261 260 261 260
286 282 277 277 286 289 285 287 289 286 287 288 290 283 282 282 277 273 269 266 263 262 260 260 259 260 261 261 261 262 263 264 265 265 266 266 266 267 270 265 263 263 261 262 263 261 262 263 262
276 281 280 281 281 288 291 292 294 295 294 292 293 292 287 284 278 272 270 269 266 265 263 260 262 262 262 262 263 264 265 266 265 266 266 266 266 267 269 266 266 265 263 264 264 264 263 264 265
260 267 279 285 286 285 289 293 294 296 294 294 295 294 292 288 281 276 273 270 268 266 264 262 264 264 263 263 264 265 266 266 265 264 267 266 266 267 266 266 266 265 266 265 265 265 266 269 270